Wind_Speed
6 6 6 6 6 6 6 6 6 5 5 6 6 7 8 9 9 8 8 6 4 2 2 3 5 7 9 11 9 22 32 33 31 23 14 6 4 4 5 7 3 2 0 5 10 12 10
5 5 5 5 5 6 6 6 6 6 6 7 7 7 8 8 9 8 7 6 4 2 1 2 4 6 9 9 8 18 29 34 33 22 14 8 8 5 5 5 3 5 6 9 12 12 10
5 5 5 5 5 5 6 6 7 7 7 7 7 8 7 7 8 8 7 6 4 2 1 2 4 5 8 9 7 10 21 34 33 23 15 12 11 6 13 7 8 6 9 11 9 11 11
6 6 6 6 6 7 7 7 8 8 8 8 8 8 7 7 7 7 6 6 5 3 1 2 3 5 6 6 6 10 16 25 35 27 18 16 14 11 13 10 8 7 11 10 7 7 15
7 8 8 9 8 8 8 9 9 10 10 10 9 9 8 7 8 7 6 5 4 3 2 2 4 5 7 8 5 10 16 23 31 27 19 20 18 14 11 11 3 4 14 14 11 12 10
9 9 10 11 11 11 11 10 10 11 11 11 11 10 9 7 8 7 6 4 3 2 2 3 4 5 6 6 8 12 17 22 30 27 24 22 11 13 7 7 3 11 15 13 17 14 9
11 12 12 12 12 12 13 12 12 12 12 11 11 10 10 8 8 7 6 6 5 5 3 3 5 3 8 7 10 12 15 20 31 34 29 21 16 6 5 6 7 12 16 16 11 9 18
13 13 14 14 14 13 13 13 13 13 12 11 11 10 9 8 8 7 6 6 6 5 2 3 4 5 7 8 13 14 16 20 25 28 23 15 10 5 3 5 10 12 13 9 11 13 18
14 14 14 15 15 15 14 14 14 13 13 11 11 10 9 7 8 7 6 5 6 6 3 4 6 7 7 6 7 11 13 13 17 20 17 15 8 6 4 2 6 7 11 14 14 13 16
14 15 15 16 16 16 15 15 15 14 13 12 11 9 8 7 7 6 5 4 5 8 2 3 6 9 7 7 7 8 10 10 14 11 10 10 12 7 7 8 6 12 6 9 8 12 15
13 14 15 15 16 16 16 16 15 14 13 12 12 8 9 8 7 6 5 3 4 3 3 6 7 6 8 7 6 11 12 12 10 9 9 3 9 9 13 9 11 5 4 8 11 15 15
12 13 14 15 16 16 16 16 15 14 13 12 12 8 9 7 7 7 7 4 2 1 1 4 7 6 11 13 10 13 13 12 8 8 10 7 9 12 11 11 11 10 12 11 15 13 2
11 12 13 14 14 15 15 15 14 14 12 12 12 7 8 7 8 9 9 6 2 2 3 1 4 5 13 15 13 12 12 11 6 3 5 4 3 6 5 6 8 12 11 5 4 4 3
11 12 13 14 14 14 14 13 13 13 10 11 12 9 8 9 7 11 12 10 4 3 4 1 3 7 12 15 11 11 10 12 11 6 7 3 4 9 4 4 1 3 1 1 2 0 5
11 13 14 15 15 15 14 12 11 12 9 9 10 9 9 9 10 14 16 14 4 3 2 4 2 8 9 14 8 11 12 10 7 6 6 2 5 7 5 6 2 1 3 4 1 2 1
12 14 16 17 17 16 14 12 11 11 8 8 8 7 7 9 12 17 18 15 8 2 3 4 3 5 3 8 13 8 8 2 4 8 13 9 4 4 6 5 5 1 2 2 2 2 1
13 15 17 18 18 17 14 11 10 10 7 6 5 5 6 9 14 18 18 17 12 3 5 5 4 10 6 7 10 14 7 3 7 12 11 21 15 6 5 4 3 3 2 2 2 1 4
14 16 18 18 18 17 14 10 8 8 6 5 7 9 8 12 13 16 15 13 14 9 4 7 4 6 6 4 6 10 18 10 6 1 3 13 4 5 9 8 8 6 7 4 1 3 3
14 16 18 19 19 17 13 9 6 6 5 6 9 11 8 11 8 8 8 9 11 11 7 10 7 5 5 6 3 10 13 14 12 6 6 8 6 11 5 5 7 4 2 3 4 4 3
13 15 17 18 18 16 11 7 5 4 3 11 11 9 9 11 11 11 8 11 11 11 11 9 5 6 6 4 4 10 11 10 10 8 9 8 7 7 10 6 3 3 6 8 8 7 9
13 15 16 17 17 15 11 7 5 4 5 12 9 7 8 8 11 9 9 7 14 12 9 8 5 7 7 7 8 9 10 9 7 7 6 7 6 5 5 3 4 6 8 10 8 7 6
13 14 15 16 16 14 10 7 5 4 4 13 9 8 8 6 8 7 10 10 13 11 11 8 4 2 5 7 8 9 9 9 8 8 7 6 8 6 4 5 6 8 8 6 1 3 2
13 14 14 14 14 13 10 7 6 4 2 15 11 9 8 5 9 9 11 11 10 9 9 8 8 6 5 4 4 6 9 11 11 10 9 8 9 8 5 7 6 4 6 5 4 4 6
13 12 12 12 12 12 10 7 6 4 2 8 15 13 8 8 10 11 10 8 7 6 7 8 8 8 9 9 11 13 14 17 16 14 14 16 15 10 6 5 3 8 8 7 7 9 10
10 10 10 10 10 10 10 8 6 5 3 4 9 15 15 11 10 11 11 10 7 6 7 9 11 13 14 15 15 16 14 13 12 13 14 14 11 7 5 11 9 11 14 11 11 13 16
8 10 10 10 10 9 9 8 6 5 4 3 5 10 16 15 14 12 12 10 8 7 10 13 15 16 16 14 10 9 7 8 8 10 14 14 14 13 10 5 6 5 8 10 10 17 6
9 8 10 10 9 8 8 7 6 5 4 3 4 8 14 14 15 13 13 13 11 10 10 10 10 9 7 6 8 6 5 11 8 10 13 12 11 12 11 9 8 13 11 9 7 8 19
11 10 10 11 9 8 8 7 6 5 5 3 3 5 10 14 12 12 13 12 12 13 12 10 8 7 6 6 6 5 5 9 9 12 12 12 8 9 8 8 8 8 5 10 16 21 24
14 12 11 10 10 9 8 7 6 6 5 4 3 5 6 11 11 15 16 17 16 14 11 11 11 9 5 4 7 6 5 8 10 9 11 8 10 5 7 6 6 13 15 18 20 21 23
Wind_Direction
37 37 35 32 31 31 31 24 19 14 9 4 359 357 356 353 352 352 349 348 352 12 61 119 146 158 164 169 160 175 178 180 180 188 184 170 218 167 109 112 66 39 46 302 315 322 314
16 19 19 19 15 11 8 6 -0 357 354 352 351 352 354 353 352 353 352 354 357 16 105 149 159 167 175 174 173 179 185 183 187 192 189 198 223 170 154 181 201 310 255 298 294 281 290
347 347 349 347 347 346 344 341 341 338 338 338 339 340 343 346 347 349 353 354 358 23 116 160 173 175 185 187 194 180 190 190 192 195 192 212 222 182 194 223 249 305 323 283 282 251 274
320 320 320 320 321 320 320 320 320 321 321 321 322 323 328 334 339 343 351 358 2 10 81 134 167 190 171 180 205 186 183 190 195 195 201 218 217 208 227 243 287 326 359 41 4 271 264
305 306 306 307 306 304 303 305 306 305 306 307 307 308 312 320 327 334 341 354 5 25 46 130 142 159 160 162 164 177 176 183 188 191 208 221 213 226 251 247 301 339 358 22 12 349 310
298 299 300 301 301 301 299 298 297 297 298 298 299 298 297 302 310 321 331 327 331 3 37 128 148 142 166 166 155 163 174 181 185 191 209 224 226 238 236 235 286 329 344 358 355 9 332
294 294 294 295 297 298 299 298 296 295 294 294 293 294 291 288 292 306 318 323 322 325 319 223 184 183 160 163 160 157 170 184 189 198 210 234 242 211 189 236 289 314 319 324 341 356 345
292 292 293 293 293 294 294 296 297 296 293 292 290 288 285 279 279 288 311 330 342 326 319 215 184 166 153 142 153 163 171 181 193 203 212 220 186 172 192 310 316 317 317 323 324 331 334
290 290 291 292 292 291 292 293 294 294 293 289 286 285 281 272 268 276 297 326 338 345 326 217 191 178 152 141 144 166 176 180 188 200 206 214 167 182 292 256 332 307 294 292 300 320 325
293 291 292 292 292 292 291 291 292 291 291 288 281 277 274 267 260 264 277 311 336 349 36 115 168 188 177 152 157 160 177 180 175 170 187 228 203 233 239 224 295 314 300 306 303 318 323
299 297 295 293 293 294 292 290 289 288 287 286 279 271 267 254 247 241 243 290 334 353 30 140 164 171 158 166 149 159 153 161 163 183 209 189 212 238 249 257 284 303 321 320 310 311 308
309 306 302 300 297 296 293 290 288 284 283 281 274 268 265 246 238 227 225 253 315 296 118 158 167 173 175 153 137 154 159 167 166 214 242 232 238 253 263 279 278 256 306 303 299 292 306
321 317 314 310 307 304 299 293 286 281 278 274 270 263 255 243 237 218 211 214 244 228 118 146 205 188 176 163 162 175 197 201 199 209 250 293 82 335 286 240 269 266 290 324 351 -0 156
328 327 326 323 320 315 307 297 288 281 277 266 267 263 250 249 231 212 205 188 217 97 139 352 322 202 193 196 196 206 215 218 211 219 308 357 63 25 15 260 53 138 320 292 242 253 312
335 333 330 327 326 322 313 303 295 286 282 270 270 267 252 240 220 207 199 191 174 141 95 30 126 187 205 210 205 219 238 242 230 233 228 334 33 44 61 67 137 140 334 335 235 345 49
335 334 332 331 329 326 316 307 297 292 292 281 277 261 245 224 210 199 199 197 178 93 140 90 100 147 201 199 215 220 220 170 309 267 245 261 285 92 108 95 76 115 108 82 87 88 359
333 334 335 334 331 327 319 309 296 295 297 283 257 209 207 196 194 198 205 207 197 147 126 125 117 165 135 180 230 234 226 227 295 280 256 229 242 274 274 87 91 151 98 106 137 135 154
329 333 336 335 333 327 320 310 295 297 294 262 199 177 179 183 190 207 215 216 216 183 186 144 146 186 193 195 207 189 207 191 200 220 222 212 225 220 156 131 104 91 98 85 187 219 216
327 332 335 336 335 331 321 310 295 297 280 199 187 181 186 179 186 181 180 201 210 199 179 168 160 176 182 185 132 163 172 188 195 184 166 155 179 139 177 249 245 254 331 23 350 306 238
325 330 334 336 338 334 324 313 299 303 252 175 180 191 201 191 172 169 175 166 182 197 184 177 184 204 219 239 227 200 177 179 192 200 202 198 214 221 233 244 220 281 300 309 306 270 267
320 327 332 336 340 337 328 313 308 307 207 182 191 199 185 186 186 174 176 157 162 161 184 186 176 213 229 244 252 199 196 187 192 215 202 213 215 224 200 233 291 303 300 298 283 252 238
312 321 329 336 340 340 331 314 313 319 208 189 186 175 165 172 184 149 149 132 161 181 194 197 217 203 234 234 228 203 200 198 196 199 206 212 171 181 200 257 276 287 280 277 221 165 201
306 315 324 334 340 341 335 321 314 324 229 195 194 189 182 158 160 162 160 153 164 175 184 203 206 226 243 241 241 239 234 238 234 235 230 226 220 227 216 212 220 260 241 221 234 284 316
304 312 319 330 338 340 337 327 314 316 276 206 208 204 203 190 185 182 180 179 182 196 207 220 233 243 254 266 273 269 264 260 256 262 261 246 234 214 179 178 253 253 249 244 267 293 309
301 313 321 327 335 340 341 336 328 322 303 239 216 212 212 207 203 199 193 194 209 223 238 253 264 269 275 283 292 264 253 247 243 226 215 201 196 193 200 214 265 258 244 260 281 297 306
293 310 316 325 332 338 341 339 333 330 315 272 223 208 205 207 209 209 208 219 233 256 271 278 279 281 285 281 260 212 196 186 180 157 186 198 202 216 201 209 222 268 244 258 286 305 331
282 299 319 318 324 330 335 337 332 330 321 296 246 215 207 206 213 213 219 232 245 258 276 277 274 280 267 249 210 192 181 180 178 180 176 183 200 217 232 234 252 264 247 261 276 306 310
270 284 305 315 310 317 323 327 325 321 325 311 265 234 220 216 218 222 232 244 261 280 280 261 248 257 256 228 210 190 178 186 185 195 202 213 220 218 217 225 258 229 232 272 297 307 310
263 276 292 305 308 297 305 312 317 318 319 316 286 261 237 225 227 239 254 262 270 268 249 234 236 248 270 261 221 208 199 203 213 207 220 225 242 243 237 232 255 285 292 295 301 309 310
Height
3183 3182 3182 3181 3180 3179 3178 3177 3176 3175 3175 3174 3173 3172 3171 3170 3169 3168 3167 3166 3165 3165 3165 3165 3165 3166 3168 3171 3172 3172 3175 3179 3182 3185 3188 3189 3190 3190 3190 3190 3190 3189 3188 3189 3187 3186 3186
3184 3183 3183 3182 3181 3180 3179 3178 3177 3176 3175 3174 3173 3172 3171 3170 3169 3168 3167 3166 3165 3165 3165 3165 3165 3166 3168 3171 3172 3173 3175 3178 3181 3185 3188 3189 3189 3190 3191 3190 3191 3190 3189 3189 3188 3186 3186
3185 3184 3183 3182 3181 3180 3179 3178 3177 3176 3175 3174 3173 3172 3171 3170 3169 3168 3167 3166 3165 3164 3164 3165 3165 3166 3167 3170 3170 3172 3175 3178 3180 3184 3187 3188 3189 3191 3191 3191 3191 3191 3189 3187 3185 3185 3185
3184 3184 3183 3182 3181 3179 3178 3177 3176 3175 3175 3174 3173 3172 3171 3170 3169 3168 3167 3166 3165 3165 3165 3165 3165 3165 3167 3168 3169 3171 3172 3176 3180 3184 3186 3187 3189 3190 3190 3191 3192 3191 3190 3185 3186 3185 3184
3183 3183 3182 3181 3180 3179 3178 3177 3176 3174 3174 3173 3172 3171 3170 3169 3168 3167 3167 3166 3165 3165 3165 3165 3165 3165 3166 3167 3168 3169 3171 3175 3179 3184 3186 3186 3190 3190 3192 3192 3193 3191 3189 3187 3186 3184 3183
3182 3181 3180 3179 3179 3177 3176 3175 3174 3173 3172 3172 3171 3170 3169 3169 3168 3167 3166 3166 3165 3165 3165 3165 3166 3168 3167 3167 3167 3169 3171 3174 3178 3182 3184 3187 3189 3190 3191 3193 3192 3190 3189 3187 3186 3186 3183
3179 3178 3178 3177 3176 3175 3174 3173 3172 3171 3170 3169 3169 3168 3167 3167 3166 3166 3166 3166 3168 3167 3165 3165 3166 3166 3166 3167 3168 3170 3173 3175 3177 3181 3184 3186 3188 3189 3191 3192 3191 3190 3189 3187 3185 3185 3182
3177 3176 3175 3174 3174 3173 3172 3170 3169 3168 3167 3167 3166 3166 3165 3165 3165 3165 3165 3165 3165 3166 3164 3164 3165 3166 3167 3167 3168 3170 3173 3177 3178 3181 3184 3188 3187 3189 3190 3190 3189 3188 3187 3186 3185 3184 3182
3174 3173 3172 3171 3171 3170 3169 3168 3167 3165 3164 3164 3163 3163 3163 3163 3163 3164 3164 3164 3163 3163 3162 3164 3164 3166 3168 3170 3171 3172 3175 3177 3179 3182 3184 3185 3187 3187 3187 3187 3187 3187 3186 3185 3184 3182 3181
3171 3170 3169 3168 3168 3167 3166 3164 3164 3162 3161 3161 3160 3160 3161 3161 3164 3162 3163 3163 3163 3162 3162 3165 3165 3166 3169 3170 3172 3172 3175 3179 3180 3183 3184 3184 3185 3185 3186 3186 3187 3186 3185 3184 3182 3181 3179
3169 3168 3166 3165 3164 3163 3162 3161 3160 3159 3158 3157 3157 3158 3158 3159 3160 3161 3163 3162 3162 3163 3163 3166 3165 3166 3167 3171 3173 3173 3175 3178 3181 3182 3185 3184 3184 3184 3184 3185 3185 3185 3184 3183 3181 3180 3178
3167 3165 3164 3162 3161 3160 3159 3157 3156 3155 3155 3154 3154 3155 3156 3157 3158 3160 3160 3162 3163 3165 3163 3164 3165 3165 3167 3169 3171 3173 3175 3178 3179 3181 3181 3180 3182 3182 3181 3182 3183 3183 3183 3182 3179 3178 3177
3165 3163 3162 3160 3158 3156 3155 3154 3153 3152 3152 3151 3151 3153 3153 3155 3156 3157 3159 3162 3164 3162 3164 3165 3164 3165 3168 3170 3172 3173 3175 3176 3178 3180 3179 3179 3179 3178 3177 3178 3179 3181 3182 3181 3181 3179 3181
3164 3162 3160 3158 3156 3154 3152 3151 3149 3148 3149 3149 3149 3149 3151 3152 3154 3155 3158 3162 3162 3162 3162 3163 3163 3165 3167 3169 3172 3173 3174 3176 3177 3178 3179 3178 3179 3178 3177 3178 3180 3180 3182 3181 3185 3185 3181
3163 3161 3159 3157 3154 3152 3149 3148 3147 3146 3146 3146 3146 3147 3148 3149 3150 3153 3157 3159 3159 3161 3161 3161 3160 3163 3166 3168 3171 3172 3173 3175 3176 3177 3179 3178 3179 3179 3177 3177 3179 3180 3181 3181 3180 3181 3181
3162 3160 3157 3155 3152 3149 3147 3146 3144 3143 3143 3143 3143 3143 3145 3146 3147 3150 3154 3155 3158 3160 3160 3160 3161 3163 3165 3166 3169 3170 3172 3174 3174 3174 3177 3178 3179 3179 3178 3179 3178 3178 3180 3180 3179 3183 3184
3161 3159 3156 3153 3150 3147 3144 3143 3142 3141 3141 3141 3141 3142 3143 3144 3146 3149 3151 3153 3157 3159 3159 3160 3161 3163 3164 3166 3166 3167 3170 3172 3172 3172 3172 3174 3179 3180 3179 3178 3178 3179 3178 3179 3180 3180 3181
3160 3157 3154 3151 3148 3145 3142 3141 3140 3139 3139 3140 3140 3142 3142 3143 3146 3147 3149 3152 3155 3158 3158 3159 3160 3162 3164 3165 3164 3165 3168 3170 3172 3171 3170 3172 3176 3176 3178 3178 3178 3178 3178 3178 3179 3180 3179
3159 3156 3153 3150 3147 3143 3141 3139 3139 3138 3138 3138 3139 3141 3143 3144 3145 3147 3148 3151 3153 3156 3157 3159 3160 3162 3164 3164 3166 3165 3166 3168 3170 3171 3171 3172 3174 3177 3179 3180 3178 3178 3177 3178 3178 3179 3178
3157 3155 3152 3149 3146 3142 3139 3138 3138 3137 3137 3139 3140 3142 3142 3143 3144 3145 3147 3149 3151 3153 3156 3158 3159 3162 3163 3164 3165 3165 3166 3167 3168 3169 3170 3171 3172 3172 3173 3173 3175 3175 3175 3175 3176 3177 3176
3156 3153 3151 3148 3145 3141 3139 3137 3137 3136 3136 3139 3140 3141 3141 3142 3143 3145 3146 3148 3149 3151 3154 3157 3158 3161 3162 3164 3164 3165 3165 3166 3167 3167 3168 3169 3169 3170 3170 3171 3171 3171 3171 3172 3172 3172 3173
3154 3152 3149 3146 3143 3141 3138 3136 3136 3135 3135 3138 3140 3141 3142 3142 3143 3145 3146 3147 3149 3151 3154 3156 3157 3159 3160 3162 3163 3163 3164 3165 3166 3167 3166 3166 3167 3167 3169 3169 3170 3169 3170 3169 3170 3171 3171
3152 3150 3147 3145 3142 3140 3137 3136 3135 3135 3135 3136 3138 3140 3142 3142 3143 3145 3146 3147 3149 3151 3154 3155 3156 3158 3159 3161 3161 3161 3162 3163 3163 3164 3164 3165 3166 3166 3167 3168 3168 3169 3167 3168 3168 3168 3169
3149 3148 3145 3143 3141 3139 3137 3135 3134 3134 3134 3135 3136 3139 3141 3142 3144 3144 3146 3147 3149 3151 3152 3154 3155 3156 3158 3158 3158 3158 3159 3159 3160 3161 3162 3162 3163 3164 3165 3166 3168 3164 3164 3164 3165 3165 3166
3147 3146 3144 3142 3140 3138 3136 3135 3134 3133 3133 3133 3134 3137 3139 3141 3143 3144 3145 3146 3148 3149 3151 3152 3153 3153 3153 3154 3154 3153 3153 3153 3154 3155 3157 3159 3160 3162 3163 3164 3164 3162 3161 3162 3161 3162 3162
3145 3144 3143 3141 3139 3138 3136 3134 3133 3132 3132 3132 3133 3133 3136 3139 3141 3143 3144 3145 3146 3147 3148 3148 3149 3149 3149 3148 3148 3148 3148 3149 3152 3152 3154 3157 3159 3161 3161 3161 3160 3158 3157 3158 3158 3157 3157
3143 3142 3141 3139 3138 3137 3135 3134 3133 3132 3131 3132 3132 3132 3134 3136 3138 3140 3142 3143 3144 3145 3145 3145 3146 3146 3145 3145 3145 3146 3146 3147 3149 3150 3153 3154 3156 3158 3158 3157 3156 3155 3155 3156 3158 3160 3154
3140 3140 3139 3138 3136 3135 3134 3133 3132 3131 3131 3130 3130 3131 3132 3134 3136 3137 3138 3140 3140 3141 3142 3143 3144 3144 3144 3144 3145 3144 3145 3146 3147 3149 3150 3153 3154 3155 3155 3155 3155 3152 3153 3155 3154 3150 3149
3137 3137 3137 3136 3134 3134 3133 3132 3131 3130 3130 3129 3129 3129 3129 3131 3133 3134 3135 3136 3137 3137 3138 3139 3141 3141 3142 3142 3143 3143 3143 3144 3145 3147 3148 3151 3151 3152 3154 3152 3151 3151 3150 3149 3148 3147 3144